#timestamp,LO_Frequency,Hit 
1501513235.6,286046943.8,P
1501513255.5,286046948.0,P
1501513275.3,286046945.7,P
1501513295.1,286046946.6,P
1501513315.9,286047000.7,N
1501513335.7,286046998.3,N
1501513355.6,286046999.3,N
1501513375.4,286046999.5,N
1501513395.2,286046998.7,N
1501513415.1,286047000.5,N
1501513416.0,286047000.5,N
1501513435.8,286047001.5,N
1501513455.7,286047004.0,N
1501513475.5,286047001.4,N
1501513495.3,286047003.6,N
1501513515.2,286047003.4,N
1501513535.0,286047006.0,N
1501513535.9,286047006.0,N
1501513555.7,286047005.9,N
1501513575.6,286047005.8,N
1501513595.4,286047011.9,N
1501513615.3,286047007.1,N
1501513635.1,286047007.4,N
1501513636.0,286047007.4,N
1501513655.8,286047009.2,N
1501513675.7,286047008.4,N
1501513695.5,286047007.9,N
1501513715.4,286047010.3,N
1501513735.2,286047009.6,N
1501513755.0,286047009.6,N
1501513755.9,286047009.6,N
1501513775.8,286047010.0,N
1501513795.6,286047012.4,N
1501513815.4,286047011.2,N
1501513835.3,286047011.5,N
1501513855.1,286047011.2,N
1501513875.9,286047012.8,P
1501513895.7,286047007.0,N
1501513915.5,286047008.7,N
1501513935.4,286047008.8,P
1501513955.2,286047001.2,P
1501513975.1,286046998.7,N
1501513976.0,286046998.7,N
1501513995.8,286047001.2,N
1501514015.6,286046998.5,N
1501514035.5,286047001.1,N
1501514055.3,286047000.9,N
1501514075.2,286047000.3,N
1501514095.9,286046999.9,N
1501514115.7,286046999.9,N
1501514135.6,286047000.1,N
1501514155.4,286047002.4,N
1501514175.2,286047001.7,N
1501514195.1,286047002.1,N
1501514196.0,286047002.1,N
1501514215.8,286047001.4,N
1501514235.7,286047001.6,N
1501514255.5,286047004.2,N
1501514275.3,286047003.9,N
1501514295.2,286047006.0,N
1501514315.0,286047004.9,N
1501514315.9,286047004.9,N
1501514335.8,286047005.1,N
1501514355.6,286047005.9,N
1501514375.4,286047005.3,N
1501514395.3,286047005.5,N
1501514415.1,286047005.1,N
1501514435.8,286047005.3,N
1501514455.7,286047005.3,N
1501514475.5,286047005.1,N
1501514495.3,286047005.7,N
1501514515.2,286047005.0,N
1501514535.0,286047005.3,N
1501514535.9,286047005.3,N
1501514555.8,286047004.9,N
1501514575.6,286047004.6,N
1501514595.4,286047004.5,N
1501514615.3,286047007.0,P
1501514635.1,286047005.7,P
1501514655.9,286047003.1,N
1501514675.7,286047005.0,P
1501514695.5,286047000.7,P
1501514715.4,286047000.6,N
1501514735.2,286047001.1,N
1501514755.1,286047000.4,N
1501514756.0,286047000.4,N
1501514775.8,286047001.1,N
1501514795.6,286047001.2,N
1501514815.5,286046998.8,N
1501514835.3,286046999.3,N
1501514855.1,286046999.2,N
1501514875.9,286046998.9,N
1501514895.7,286046998.8,N
1501514915.6,286046996.9,N
1501514935.4,286046999.2,N
1501514955.2,286046998.9,N
1501514975.1,286046998.4,N
1501514976.0,286046998.4,N
1501514995.8,286047000.6,N
1501515015.6,286046999.2,N
1501515035.5,286046997.0,N
1501515055.3,286046996.6,N
1501515075.2,286046996.9,N
1501515095.9,286046999.3,N
1501515115.7,286046998.5,N
1501515135.6,286047000.7,N
1501515155.4,286047000.8,N
1501515175.2,286047001.2,N
1501515195.1,286046998.4,N
1501515196.0,286046998.4,N
1501515215.8,286046998.8,N
1501515235.7,286046999.4,N
1501515255.5,286046999.6,N
1501515275.3,286046996.6,N
1501515295.2,286046999.6,N
1501515315.0,286046999.2,N
1501515315.9,286046999.2,N
1501515335.8,286046998.7,N
1501515355.6,286046998.1,N
1501515375.4,286047000.7,N
1501515395.3,286047000.5,N
1501515415.1,286047000.4,N
1501515435.8,286047000.4,N
1501515455.7,286047001.0,N
1501515475.5,286047000.5,N
1501515495.4,286047000.7,N
1501515515.2,286047000.7,N
1501515535.0,286047000.8,N
1501515535.9,286047000.8,N
1501515555.8,286047000.5,N
1501515575.6,286047000.0,N
1501515595.4,286047000.1,N
1501515615.3,286047002.8,N
1501515635.1,286047002.1,N
1501515655.9,286047002.0,N
1501515675.7,286047002.0,N
1501515695.5,286047002.2,N
1501515715.4,286047001.6,N
1501515735.2,286047001.5,N
1501515755.0,286047001.4,N
1501515756.0,286047001.4,N
1501515775.8,286047003.9,N
1501515795.6,286047004.4,P
1501515815.5,286047002.3,N
1501515835.3,286047002.2,N
1501515855.1,286047002.3,N
1501515875.9,286047000.2,N
1501515895.7,286047000.2,N
1501515915.6,286047001.2,N
1501515935.4,286046998.5,N
1501515955.2,28601501516055.8,286047000.5,P
1501516075.7,286047000.1,N
1501516095.5,286046999.9,N
1501516115.3,286047000.0,N
1501516135.2,286047000.1,N
1501516155.0,286047000.0,N
1501516155.9,286047000.0,N
1501516175.8,286047000.2,P
1501516195.6,286047000.1,N
1501516215.4,286047002.1,P
1501516235.3,286047002.4,N
1501516255.1,286047002.5,N
1501516275.9,286047002.4,N
1501516295.7,286047002.8,N
1501516315.5,286047002.1,N
1501516335.4,286046999.7,N
1501516355.2,286047002.6,N
1501516375.0,286047002.6,N
1501516375.9,286047002.6,N
1501516395.8,286047001.3,N
1501516415.6,286047002.1,N
1501516435.5,286046999.8,N
1501516455.3,286046999.9,N
1501516475.1,286047000.3,N
1501516495.9,286047000.4,N
1501516515.7,286047000.0,N
1501516535.6,286047002.4,N
1501516555.4,286046999.8,N
1501516575.2,286047002.7,N
1501516595.1,286047002.4,N
1501516596.0,286047002.4,N
1501516615.8,286047002.4,N
1501516635.6,286047002.0,N
1501516655.5,286047001.7,N
1501516675.3,286047002.5,N
1501516695.2,286047002.8,N
1501516715.9,286047002.1,N
1501516735.7,286047000.2,N
1501516755.6,286047002.6,N
1501516775.4,286047001.9,N
1501516795.2,286046999.7,N
